Location: Dead Woman Crossing
(43.5369°N, 106.3228°W)
Time: 16:24:11
(UTC+00:00)

ITUPSAT 1 - Pass Details

Date: 02 July 2022
Orbit: 701 x 711 km, 98.6° (Epoch: 13 August)

Event Time Altitude Azimuth Distance (km) Brightness Sun altitude
Rises 03:28:31 0° 14° (NNE) 3,111 ? -6.4°
Reaches altitude 10° 03:30:47 10° 16° (NNE) 2,189 ? -6.7°
Maximum altitude 03:35:35 79° 103° (ESE) 728 ? -7.3°
Drops below altitude 10° 03:40:22 10° 191° (S) 2,178 ? -8.0°
Sets 03:42:37 0° 192° (SSW) 3,093 ? -8.3°
